Tracking 25995 objects as of 18-Aug-2022
HD Live streaming from Space Station
objects crossing your sky now

SCOUT A DEB

Track SCOUT A DEB now!
10-day predictions


NORAD ID: 3214
Int'l Code: 1968-012D
Perigee: 1,019.2 km
Apogee: 1,298.6 km
Inclination: 89.9 °
Period: 108.4 minutes
Semi major axis: 7529 km
RCS: 0.049 m2 (small)
Launch date: March 2, 1968
Source: United States (US)
Launch site: AIR FORCE WESTERN TEST RANGE (AFWTR)

Note: This is SATELLITE DEBRIS
aabbcc
Your satellite tracking list
Your tracking list is empty




NASA's NSSDC Master Catalog

Two Line Element Set (TLE):
1  3214U 68012D   22230.43395141  .00000114  00000-0  20952-3 0  9993
2  3214  89.8924 123.7711 0185553 196.5062 227.7297 13.28671142635230
Source of the keplerian elements: AFSPC